Frederick, MD

5:15 AM EDT on May 23, 2017 (GMT -0400)
Frederick Municipal

Weather History for KFDK - June, 2013

Change the Weather History Date:

Sunday, June 2, 2013

  Actual Average (KHGR) Record (KHGR)
Temperature  
Mean Temperature 74 °F -  
Max Temperature 80 °F 72 °F 86 °F (2007)
Min Temperature 68 °F 54 °F 45 °F (2003)
Cooling Degree Days 9    
Growing Degree Days 24 (Base 50)    
Moisture  
Dew Point 67 °F    
Average Humidity 83    
Maximum Humidity 100    
Minimum Humidity 61    
Precipitation  
Precipitation 0.00 in - - ()
Sea Level Pressure  
Sea Level Pressure 29.90 in    
Wind  
Wind Speed 7 mph (SSW)    
Max Wind Speed 12 mph    
Max Gust Speed 16 mph    
Visibility 10 miles    
Events Rain , Thunderstorm    
Averages and records for this station are not official NWS values.
T = Trace of Precipitation, MM = Missing Value Source: NWS Daily Summary

Daily Weather History Graph

Daily Weather History Graph

Search for Another Location

Airport or City:

Trip Planner

Search our weather history database for the weather conditions in past years. The results will help you decide how hot, cold, wet, or windy it might be!

Date:

Astronomy

Jun. 02, 2013 Rise Set
Actual Time 5:44 AM EDT 8:31 PM EDT
Civil Twilight 5:12 AM EDT 9:03 PM EDT
Nautical Twilight 4:32 AM EDT 9:43 PM EDT
Astronomical Twilight 3:46 AM EDT 10:28 PM EDT
Moon 2:08 AM EDT (6/2) 3:01 PM EDT (6/2)
Length of Visible Light 15h 51m
Length of Day
14h 47m
Waning Crescent, 31% of the Moon is Illuminated
Jun 2
Waning Crescent
Jun 8
New
Jun 16
First Quarter
Jun 23
Full
Jun 30
Last Quarter

Hourly Weather History & Observations

Time (EDT) Temp. Heat Index Dew Point Humidity Pressure Visibility Wind Dir Wind Speed Gust Speed Precip Events Conditions
12:05 AM 78.8 °F - 64.4 °F 61% 29.94 in 10.0 mi South 8.1 mph 16.1 mph N/A   Clear
12:25 AM 77.0 °F - 64.4 °F 65% 29.94 in 10.0 mi South 8.1 mph - N/A   Clear
12:45 AM 77.0 °F - 64.4 °F 65% 29.93 in 10.0 mi South 8.1 mph - N/A   Clear
1:05 AM 77.0 °F - 64.4 °F 65% 29.93 in 10.0 mi South 8.1 mph - N/A   Clear
1:25 AM 75.2 °F - 64.4 °F 69% 29.92 in 10.0 mi South 10.4 mph - N/A   Clear
1:45 AM 75.2 °F - 64.4 °F 69% 29.92 in 10.0 mi South 10.4 mph - N/A   Clear
2:05 AM 73.4 °F - 64.4 °F 73% 29.92 in 10.0 mi South 9.2 mph - N/A   Clear
2:25 AM 73.4 °F - 64.4 °F 73% 29.91 in 10.0 mi South 6.9 mph - N/A   Clear
2:45 AM 73.4 °F - 64.4 °F 73% 29.90 in 10.0 mi South 5.8 mph - N/A   Clear
3:05 AM 71.6 °F - 64.4 °F 78% 29.89 in 10.0 mi South 5.8 mph - N/A   Clear
3:25 AM 71.6 °F - 64.4 °F 78% 29.90 in 10.0 mi South 5.8 mph - N/A   Clear
3:45 AM 71.6 °F - 64.4 °F 78% 29.90 in 10.0 mi South 4.6 mph - N/A   Clear
4:05 AM 69.8 °F - 64.4 °F 83% 29.90 in 10.0 mi SSW 5.8 mph - N/A   Clear
4:25 AM 69.8 °F - 64.4 °F 83% 29.89 in 10.0 mi SSW 5.8 mph - N/A   Clear
4:45 AM 69.8 °F - 64.4 °F 83% 29.89 in 10.0 mi SSW 4.6 mph - N/A   Clear
5:05 AM 69.8 °F - 64.4 °F 83% 29.89 in 10.0 mi SSW 4.6 mph - N/A   Clear
5:25 AM 68.0 °F - 64.4 °F 88% 29.88 in 10.0 mi SSE 3.5 mph - N/A   Clear
5:45 AM 68.0 °F - 64.4 °F 88% 29.89 in 10.0 mi SSW 5.8 mph - N/A   Clear
6:05 AM 69.8 °F - 64.4 °F 83% 29.89 in 10.0 mi SSW 5.8 mph - N/A   Clear
6:25 AM 69.8 °F - 64.4 °F 83% 29.89 in 10.0 mi South 5.8 mph - N/A   Scattered Clouds
6:45 AM 71.6 °F - 64.4 °F 78% 29.90 in 10.0 mi SSW 8.1 mph - N/A   Clear
7:50 AM 73.4 °F - 66.2 °F 78% 29.91 in 10.0 mi SW 11.5 mph - N/A   Clear
8:47 AM 78.8 °F - 68.0 °F 69% 29.90 in 10.0 mi SSW 10.4 mph - N/A   Scattered Clouds
9:50 AM 75.2 °F - 69.8 °F 83% 29.91 in 10.0 mi SW 6.9 mph - N/A Rain Light Rain
10:48 AM 78.8 °F - 69.8 °F 74% 29.92 in 10.0 mi SW 8.1 mph - N/A Rain Light Rain
11:52 AM 78.8 °F - 69.8 °F 74% 29.92 in 10.0 mi SW 10.4 mph - N/A   Scattered Clouds
12:50 PM 78.8 °F - 69.8 °F 74% 29.92 in 10.0 mi SSW 8.1 mph - N/A   Scattered Clouds
4:02 PM 80.6 °F 84.6 °F 71.6 °F 74% 29.88 in 10.0 mi SW 8.1 mph - N/A   Mostly Cloudy
4:50 PM 78.8 °F - 71.6 °F 78% 29.87 in 10.0 mi SW 8.1 mph - N/A   Mostly Cloudy
5:59 PM 73.4 °F - 71.6 °F 94% 29.88 in 10.0 mi SSW 5.8 mph - N/A   Mostly Cloudy
7:52 PM 69.8 °F - 69.8 °F 100% 29.87 in 10.0 mi South 3.5 mph - N/A   Scattered Clouds
8:50 PM 69.8 °F - 69.8 °F 100% 29.89 in 10.0 mi SSW 4.6 mph - N/A   Overcast
9:10 PM 69.8 °F - 68.0 °F 94% 29.90 in 10.0 mi SW 5.8 mph - N/A   Overcast
9:30 PM 68.0 °F - 68.0 °F 100% 29.89 in 10.0 mi South 6.9 mph - N/A   Overcast
9:50 PM 68.0 °F - 68.0 °F 100% 29.90 in 10.0 mi SW 4.6 mph - N/A Thunderstorm Overcast
10:10 PM 68.0 °F - 68.0 °F 100% 29.91 in 10.0 mi SSW 5.8 mph - N/A Thunderstorm Overcast
10:30 PM 68.0 °F - 68.0 °F 100% 29.91 in 10.0 mi SSW 8.1 mph - N/A Rain Rain
10:50 PM 68.0 °F - 68.0 °F 100% 29.90 in 10.0 mi South 3.5 mph - N/A   Overcast
11:10 PM 68.0 °F - 68.0 °F 100% 29.89 in 10.0 mi SSE 3.5 mph - N/A Thunderstorm Overcast
11:30 PM 68.0 °F - 68.0 °F 100% 29.90 in 10.0 mi West 4.6 mph - N/A   Overcast
11:50 PM 68.0 °F - 68.0 °F 100% 29.90 in 10.0 mi WSW 4.6 mph - N/A Rain Rain